"Pseudo-MPEC" for P10Rxi2

Created 2019 Sep 18 19:07:13 UT using Find_Orb

Click here for an explanation of pseudo-MPECs

 
 Astrometry: 
     P10Rxi2  C2019 09 11$ftJGw2y4Seb%s^^Q_AAstrometryc\y]wZw*ECe5!R/LS`8RtkqF51
     P10Rxi2  C2019 09 116JkubBZ^`p]CmquR=r=RsIE7UQ(Lg,qbInv-TlDQ:Ll3xc?r3[q5F51
     P10Rxi2  C2019 09 118/DCkK0RBM!6#.DJ,vHd5!MUM:jx*(-Nredacted;%SSj+vq`ftnF51
     P10Rxi2 KC2019 09 12exTa#=8.GEH8DRtQ[^4jida)Q5Q4,W*/t1!mclicks#8A;\Nih/iL01
     P10Rxi2 KC2019 09 12LC3p.ty9dQ/hereR]f\F:G!a@$bs6jc$yR+B@!P:TCX+R0BrmBg:L01
     P10Rxi2 KC2019 09 12DN5NQveA9C@kNeOGZ*j8iCI2opT\dR1yU9P+$KDHkiv.UU5dyMSBL01
     P10Rxi2 pC2019 09 12P?lFNN1Z9diSot1@Yfb0N=j],T\3aYd[KdcSOCm:3FcaW)ZkIBUwL01
     P10Rxi2 KC2019 09 12_yZkS=XnPB)!-lforT\j!PWG9Ywx$F@explanation3xY2X$?O]3L01
     P10Rxi2 KC2019 09 18.35015 03 38 21.82 -14 28 31.5    ~9IA7 20.2 RoNEOCP691
     P10Rxi2 KC2019 09 18.36705 03 38 21.28 -14 28 16.0    ~9IA7 20.2 RoNEOCP691
     P10Rxi2 KC2019 09 18.38391 03 38 20.73 -14 28 00.7    ~9IA7 19.5 RoNEOCP691

Station data:
(691) Steward Observatory, Kitt Peak - Spacewatch  (N31.962174 W111.600327)
   US/Arizona.  Observer J. V. Scotti. 0.9-m f/3 reflector + CCD.
(F51) Pan-STARRS 1, Haleakala  (N20.707235 W156.255910)  US/Hawaii.
   Observers N. Primak, A. Schultz, S. Watters, J. Thiel, T. Goggia. Measurer
   PS1 Science Consortium. 1.8-m Ritchey-Chrétien + CCD.
(L01) Višnjan Observatory, Tičan  (N45.290900 E13.749300)  Croatia.
   Observers K. Korlević, E. Pettarin. Measurer E. Pettarin. 1.0-m f/2.9
   reflector + CCD.

Orbital elements:  P10Rxi2
   Perihelion 2019 Jul 30.179589 +/- 1.07 TT =  4:18:36 (JD 2458694.679589)
Epoch 2019 Sep 18.0 TT = JDT 2458744.5   Earth MOID: 0.6673   AutoNEOCP
M  12.03340808 +/- 0.36             (J2000 ecliptic)
n   0.24153570 +/- 0.00523          Peri.  295.88588 +/- 1.0
a   2.55357424 +/- 0.0368           Node    45.18499 +/- 0.20
e   0.4111685 +/- 0.00783           Incl.   30.46740 +/- 0.32
P   4.08                   H 18.5   G  0.15   U  9.2  
q 1.50362491 +/- 0.00875    Q 3.60352356 +/- 0.0708
From 11 observations 2019 Sept. 11-18; mean residual 0".23
Residuals in arcseconds: 
190911 F51  .03-  .01-    190912 L01  .42+  .29-    190918 691  .39-  .02-    
190911 F51  .02-  .04+    190912 L01  .10+  .21+    190918 691  .03+  .06+    
190911 F51  .02+  .03-    190912 L01  .07+  .22+    190918 691  .36+  .05-    
190912 L01  .13-  .49-    190912 L01  .40-  .33+    

Ephemerides (geocentric):
Date (UTC) HH   RA              Dec         delta   r     elong  mag " sig PA
---- -- -- --  -------------   -----------  ------ ------ -----  --- ---- ---
2019 09 18 19  03 38 07.561   -14 21 35.50  .79860 1.5698 120.6 20.4 .339  86
2019 09 18 20  03 38 06.218   -14 20 56.75  .79838 1.5699 120.6 20.4 .372  85
2019 09 18 21  03 38 04.868   -14 20 17.98  .79817 1.5701 120.7 20.4 .405  84
2019 09 18 22  03 38 03.513   -14 19 39.17  .79796 1.5702 120.7 20.4 .438  84
2019 09 18 23  03 38 02.151   -14 19 00.34  .79774 1.5703 120.8 20.4 .472  83
2019 09 19 00  03 38 00.783   -14 18 21.47  .79753 1.5704 120.8 20.4 .506  83
2019 09 19 01  03 37 59.408   -14 17 42.57  .79732 1.5705 120.8 20.4 .541  82
2019 09 19 02  03 37 58.028   -14 17 03.65  .79710 1.5706 120.9 20.4 .576  82
2019 09 19 03  03 37 56.641   -14 16 24.69  .79689 1.5707 120.9 20.4 .612  81
2019 09 19 04  03 37 55.247   -14 15 45.70  .79668 1.5708 120.9 20.4 .648  81
2019 09 19 05  03 37 53.848   -14 15 06.68  .79647 1.5709 121.0 20.4 .684  81
2019 09 19 06  03 37 52.442   -14 14 27.63  .79625 1.5710 121.0 20.4 .721  80
2019 09 19 07  03 37 51.029   -14 13 48.55  .79604 1.5711 121.1 20.4 .758  80
2019 09 19 08  03 37 49.611   -14 13 09.43  .79583 1.5712 121.1 20.4 .795  80
2019 09 19 09  03 37 48.186   -14 12 30.29  .79562 1.5713 121.1 20.3 .833  80
2019 09 19 10  03 37 46.755   -14 11 51.12  .79540 1.5714 121.2 20.3 .871  79
2019 09 19 11  03 37 45.317   -14 11 11.91  .79519 1.5715 121.2 20.3 .910  79
2019 09 19 12  03 37 43.873   -14 10 32.68  .79498 1.5716 121.3 20.3 .949  79
2019 09 19 13  03 37 42.423   -14 09 53.41  .79477 1.5717 121.3 20.3 .988  79
2019 09 19 14  03 37 40.966   -14 09 14.11  .79456 1.5718 121.3 20.3 1.03  79
2019 09 19 15  03 37 39.504   -14 08 34.78  .79435 1.5720 121.4 20.3 1.07  79
2019 09 19 16  03 37 38.034   -14 07 55.42  .79414 1.5721 121.4 20.3 1.11  78
2019 09 19 17  03 37 36.559   -14 07 16.03  .79392 1.5722 121.4 20.3 1.15  78
2019 09 19 18  03 37 35.077   -14 06 36.61  .79371 1.5723 121.5 20.3 1.19  78
2019 09 19 19  03 37 33.589   -14 05 57.15  .79350 1.5724 121.5 20.3 1.23  78
2019 09 19 20  03 37 32.094   -14 05 17.67  .79329 1.5725 121.6 20.3 1.27  78
2019 09 19 21  03 37 30.593   -14 04 38.15  .79308 1.5726 121.6 20.3 1.32  78
2019 09 19 22  03 37 29.086   -14 03 58.60  .79287 1.5727 121.6 20.3 1.36  78
2019 09 19 23  03 37 27.573   -14 03 19.02  .79266 1.5728 121.7 20.3 1.40  78
2019 09 20 00  03 37 26.053   -14 02 39.41  .79245 1.5729 121.7 20.3 1.45  78
2019 09 20 01  03 37 24.527   -14 01 59.76  .79224 1.5730 121.8 20.3 1.49  77
2019 09 20 02  03 37 22.994   -14 01 20.09  .79203 1.5731 121.8 20.3 1.53  77
2019 09 20 03  03 37 21.455   -14 00 40.38  .79182 1.5732 121.8 20.3 1.58  77
2019 09 20 04  03 37 19.910   -14 00 00.64  .79161 1.5733 121.9 20.3 1.62  77
2019 09 20 05  03 37 18.358   -13 59 20.87  .79140 1.5735 121.9 20.3 1.67  77
2019 09 20 06  03 37 16.800   -13 58 41.07  .79119 1.5736 122.0 20.3 1.71  77
2019 09 20 07  03 37 15.236   -13 58 01.23  .79098 1.5737 122.0 20.3 1.76  77
2019 09 20 08  03 37 13.665   -13 57 21.37  .79077 1.5738 122.0 20.3 1.81  77
2019 09 20 09  03 37 12.088   -13 56 41.47  .79057 1.5739 122.1 20.3 1.85  77
2019 09 20 10  03 37 10.504   -13 56 01.54  .79036 1.5740 122.1 20.3 1.90  77
2019 09 20 11  03 37 08.914   -13 55 21.58  .79015 1.5741 122.2 20.3 1.95  77
2019 09 20 12  03 37 07.318   -13 54 41.58  .78994 1.5742 122.2 20.3 2.00  77
2019 09 20 13  03 37 05.715   -13 54 01.55  .78973 1.5743 122.2 20.3 2.05  77
2019 09 20 14  03 37 04.106   -13 53 21.49  .78952 1.5744 122.3 20.3 2.09  77
2019 09 20 15  03 37 02.491   -13 52 41.40  .78931 1.5745 122.3 20.3 2.14  77
2019 09 20 16  03 37 00.869   -13 52 01.28  .78911 1.5746 122.3 20.3 2.19  77
2019 09 20 17  03 36 59.241   -13 51 21.12  .78890 1.5747 122.4 20.3 2.24  77
2019 09 20 18  03 36 57.607   -13 50 40.93  .78869 1.5749 122.4 20.3 2.29  77